Location: *
(45.9500°N, 9.0833°E)
Time: 20:47:15
(UTC+00:00)

Tiros 1 despin weight - Pass Details

Date: 27 June 2021
Orbit: 593 x 642 km, 48.2° (Epoch: 05 August)

Event Time Altitude Azimuth Distance (km) Brightness Sun altitude
Rises 09:16:26 0° 279° (W) 2,826 ? 55.3°
Reaches altitude 10° 09:20:03 10° 249° (WSW) 1,923 ? 55.9°
Maximum altitude 09:21:45 12° 226° (SW) 1,791 ? 56.1°
Drops below altitude 10° 09:23:27 10° 203° (SSW) 1,924 ? 56.4°
Sets 09:27:05 0° 172° (S) 2,830 ? 56.9°
